Location: Central Falls
(41.8900°N, 71.3929°W)
Time: 07:50:55
(UTC+00:00)

deb Transtage 4 - Visible Passes

Search period start: 21 May 2024 00:00
Search period end: 31 May 2024 00:00
Orbit: 567 x 670 km, 32.3° (Epoch: 20 May)

Date Brightness Start Highest point End Pass type
(mag) Time Alt. Az. Time Alt. Az. Time Alt. Az.
21 May ? 07:08:31 23° SSE 07:08:31 23° SSE 07:11:50 10° ESE visible
21 May ? 08:46:13 10° WSW 08:50:09 25° S 08:54:07 10° SE visible
22 May ? 07:23:32 26° S 07:23:43 26° S 07:27:44 10° ESE visible
23 May ? 07:38:36 24° SSW 07:39:26 25° S 07:43:24 10° SE visible
24 May ? 06:16:45 10° ESE 06:16:45 10° ESE 06:16:48 10° ESE visible
24 May ? 07:53:46 20° SSW 07:55:05 22° S 07:58:48 10° SE visible
25 May ? 06:32:02 12° SE 06:32:02 12° SE 06:32:26 10° SE visible
25 May ? 08:09:04 15° SW 08:10:39 17° SSW 08:13:49 10° SSE visible
26 May ? 06:47:32 11° SE 06:47:32 11° SE 06:47:48 10° SE visible
26 May ? 08:24:34 11° SW 08:26:05 12° SSW 08:28:01 10° S visible
